Hourly Data Report for May 01, 2004

TORONTO CITY
ONTARIO

43°40'00.000" N
79°24'00.000" W
112.50 m
6158355
71508
XTO

Download Data

Hourly Data (May 2004)
Hourly Data Report for May 1, 2004
TIME
LST
Temp Definition
°C
Dew Point Definition
°C
Rel Hum Definition
%
Precip. Amount Definition
mm

Wind Dir Definition
10's deg

Wind Spd Definition
km/h
Visibility Definition
km
Stn Press Definition
kPa
Hmdx Definition


Wind Chill Definition


Weather Definition


00:00 13.6 13.4 99   LegendMM LegendMM LegendMM 100.16     LegendNANA
01:00 13.2 12.9 98   LegendMM LegendMM LegendMM 100.07     LegendNANA
02:00 13.5 13.3 99   LegendMM LegendMM LegendMM 100.00     LegendNANA
03:00 13.5 13.3 99   LegendMM LegendMM LegendMM 99.94     LegendNANA
04:00 13.9 13.7 99   LegendMM LegendMM LegendMM 99.92     LegendNANA
05:00 13.5 13.3 99   LegendMM LegendMM LegendMM 99.91     LegendNANA
06:00 13.8 13.6 99   LegendMM LegendMM LegendMM 99.89     LegendNANA
07:00 14.8 14.5 98   LegendMM LegendMM LegendMM 99.88     LegendNANA
08:00 15.5 14.8 96   LegendMM LegendMM LegendMM 99.84     LegendNANA
09:00 15.9 14.9 94   LegendMM LegendMM LegendMM 99.82     LegendNANA
10:00 16.4 14.9 91   LegendMM LegendMM LegendMM 99.84     LegendNANA
11:00 16.0 13.7 86   LegendMM LegendMM LegendMM 99.83     LegendNANA
12:00 16.1 14.1 88   LegendMM LegendMM LegendMM 99.81     LegendNANA
13:00 17.2 14.6 85   LegendMM LegendMM LegendMM 99.79     LegendNANA
14:00 19.1 16.1 83   LegendMM LegendMM LegendMM 99.84     LegendNANA
15:00 19.2 14.1 72   LegendMM LegendMM LegendMM 99.90     LegendNANA
16:00 14.9 11.0 77   LegendMM LegendMM LegendMM 99.97     LegendNANA
17:00 15.0 10.5 74   LegendMM LegendMM LegendMM 100.02     LegendNANA
18:00 12.3 8.2 76   LegendMM LegendMM LegendMM 100.03     LegendNANA
19:00 10.0 6.9 81   LegendMM LegendMM LegendMM 100.12     LegendNANA
20:00 9.4 6.5 82   LegendMM LegendMM LegendMM 100.10     LegendNANA
21:00 9.4 7.1 86   LegendMM LegendMM LegendMM 100.09     LegendNANA
22:00 9.5 7.1 85   LegendMM LegendMM LegendMM 100.00     LegendNANA
23:00 9.0 7.8 92   LegendMM LegendMM LegendMM 100.07     LegendNANA

Notes on Data Quality.

Legend

  • E = Estimated
  • M = Missing
  • NA = Not Available*
  • [empty] = Indicates an unobserved value
Date modified: